Home > Weather > Auckland > Past weeks

Flag for New Zealand Weather for the Past 2 Weeks in Auckland, New Zealand

Now
73 °F

Passing clouds.


Feels Like: 73 °F
Forecast: 70 / 76 °F
Wind: 10 mph from Southeast

Location: Auckland Airport

Current Time: Feb 6, 2016 at 10:19:30 PM

Latest Report: Feb 6, 2016 at 9:30 PM


Visibility: N/A

Pressure: 29.74 "Hg

Humidity: 83%

Dew point: 68 °F

Location of AucklandLocation

Historic Weather in Auckland — Graph

°F

Auckland Temperature Yesterday

Maximum temperature yesterday: 75 °F (at 12:00 PM)
Minimum temperature yesterday: 66 °F (at 4:00 AM)
Average temperature yesterday: 70 °F

High & Low Weather Summary for the Past Weeks

 TemperatureHumidityPressure
High82 °F (Jan 24, 2:00 PM)100% (Jan 23, 5:30 AM)30.12 "Hg (Jan 23, 5:30 AM)
Low59 °F (Jan 23, 6:00 AM)32% (Jan 24, 1:00 PM)29.62 "Hg (Feb 6, 5:30 AM)
Average72 °F80%29.96 "Hg
* Reported Jan 22 9:00 PM — Feb 6 9:00 PM, Auckland, Weather by CustomWeather, © 2016

Note: Actual official high and low records may vary slightly from our data, if they occured in-between our weather recording intervals... More about our weather records

Advertising

Auckland Weather History for the Previous 24 Hours

 ConditionsComfort  
Time TempWeatherWind HumidityBarometerVisibility
9:00 PM
Sat, Feb 6
73 °FPassing clouds.10 mph83%29.74 "HgN/A
8:30 PM73 °FSprinkles. Partly cloudy.12 mph83%29.71 "HgN/A
8:00 PM75 °FPartly sunny.12 mph78%29.71 "HgN/A
7:30 PM75 °FBroken clouds.12 mph83%29.71 "HgN/A
7:00 PM77 °FBroken clouds.10 mph74%29.68 "HgN/A
6:30 PM77 °FBroken clouds.16 mph74%29.68 "HgN/A
6:00 PM77 °FPartly sunny.17 mph79%29.68 "HgN/A
5:00 PM77 °FHeavy rain. Partly sunny.8 mph79%29.68 "Hg4 mi
4:30 PM77 °FPartly sunny.10 mph79%29.68 "HgN/A
4:00 PM79 °FBroken clouds.17 mph70%29.68 "HgN/A
3:00 PM79 °FPartly sunny.16 mph74%29.65 "HgN/A
2:30 PM79 °FBroken clouds.16 mph74%29.65 "HgN/A
2:00 PM77 °FMostly cloudy.10 mph79%29.65 "HgN/A
1:30 PM79 °FMore clouds than sun.17 mph74%29.65 "HgN/A
1:00 PM77 °FCloudy.16 mph79%29.65 "HgN/A
12:30 PM75 °FPartly sunny.13 mph83%29.68 "HgN/A
12:00 PM75 °FOvercast.13 mph83%29.68 "HgN/A
11:30 AM73 °FOvercast.9 mph89%29.68 "HgN/A
11:00 AM73 °FMostly cloudy.10 mph89%29.68 "HgN/A
10:30 AM72 °FLight rain. Mostly cloudy.10 mph94%29.68 "HgN/A
10:00 AM70 °FRain. Broken clouds.12 mph94%29.65 "Hg6 mi
9:30 AM70 °FLight rain. More clouds than sun.12 mph94%29.65 "HgN/A
9:00 AM68 °FLight rain. Broken clouds.9 mph100%29.65 "Hg4 mi
8:30 AM68 °FRain. Mostly cloudy.9 mph94%29.65 "Hg2 mi
8:00 AM68 °FSprinkles. Partly sunny.6 mph100%29.65 "Hg5 mi
7:30 AM68 °FDrizzle. Partly sunny.7 mph94%29.65 "HgN/A
7:00 AM68 °FBroken clouds.8 mph94%29.65 "HgN/A
6:30 AM68 °FPassing clouds.8 mph94%29.62 "HgN/A
6:00 AM68 °FOvercast.10 mph94%29.62 "HgN/A
5:30 AM68 °FOvercast.10 mph94%29.62 "HgN/A
5:00 AM68 °FOvercast.10 mph94%29.65 "HgN/A
4:30 AM66 °FPassing clouds.10 mph100%29.65 "Hg4 mi
4:00 AM66 °FSprinkles. Passing clouds.10 mph100%29.65 "Hg2 mi
3:30 AM68 °FMostly cloudy.9 mph94%29.65 "HgN/A
3:00 AM66 °FSprinkles. Overcast.9 mph100%29.65 "Hg5 mi
2:30 AM66 °FSprinkles. Fog.9 mph100%29.68 "Hg2 mi
2:00 AM68 °FSprinkles. Mostly cloudy.10 mph94%29.68 "Hg2 mi
1:30 AM68 °FMostly cloudy.10 mph94%29.68 "HgN/A
1:00 AM68 °FPassing clouds.10 mph94%29.68 "HgN/A
12:30 AM68 °FMostly cloudy.9 mph94%29.71 "Hg4 mi
12:00 AM70 °FRain. Mostly cloudy.6 mph83%29.68 "HgN/A
11:30 PM
Fri, Feb 5
70 °FRain. Mostly cloudy.5 mph83%29.71 "HgN/A
11:00 PM70 °FPassing clouds.7 mph83%29.71 "HgN/A
10:30 PM70 °FPartly cloudy.12 mph88%29.71 "HgN/A
10:00 PM70 °FPassing clouds.12 mph83%29.68 "HgN/A
Weather by CustomWeather, © 2016

See weather overviewHow to use our weather pages